Weather History for Viroqua, WI

Change the Weather History Date:

Monday, November 25, 2013

  Actual Average (KLSE) Record (KLSE)
Temperature  
Mean Temperature 28 °F 31 °F  
Max Temperature 35 °F 38 °F 60 °F (1896)
Min Temperature 22 °F 23 °F -10 °F (1880)
Degree Days  
Heating Degree Days 36 34  
Month to date heating degree days 691  
Since 1 July heating degree days 1319  
Cooling Degree Days 0 0  
Month to date cooling degree days 0  
Year to date cooling degree days 782  
Moisture  
Dew Point 21 °F    
Average Humidity 73    
Maximum Humidity 93    
Minimum Humidity 47    
Precipitation  
Precipitation 0.00 in 0.07 in 0.86 in (1952)
Month to date precipitation 1.69  
Year to date precipitation 31.38  
Snow  
Snow 0.00 in 0.20 in 4.20 in (1942)
Month to date snowfall 2.8  
Since 1 July snowfall 3.0  
Snow Depth -    
Sea Level Pressure  
Sea Level Pressure 30.01 in    
Wind  
Wind Speed 14 mph (SW)    
Max Wind Speed 21 mph    
Max Gust Speed 28 mph    
Visibility 9 miles    
Events      
T = Trace of Precipitation, MM = Missing Value Source: NWS Daily Summary

Daily Weather History Graph

Daily Weather History Graph

Search for Another Location

Airport:

Trip Planner

Search our weather history database for the weather conditions in past years. The results will help you decide how hot, cold, wet, or windy it might be!

Date:

Astronomy

Nov. 25, 2013 Rise Set
Actual Time 7:10 AM CST 4:30 PM CST
Civil Twilight 6:38 AM CST 5:02 PM CST
Nautical Twilight 6:03 AM CST 5:37 PM CST
Astronomical Twilight 5:28 AM CST 6:12 PM CST
Moon No Moon Rise 12:20 PM CST (11/25)
Length of Visible Light 10h 23m
Length of Day
9h 20m
Waning Gibbous, 51% of the Moon is Illuminated
Nov 25
Waning Gibbous
Nov 25
Last Quarter
Dec 2
New
Dec 9
First Quarter
Dec 17
Full

Hourly Weather History & Observations

Time (CST) Temp. Windchill Dew Point Humidity Pressure Visibility Wind Dir Wind Speed Gust Speed Precip Events Conditions
12:15 AM 22.1 °F 8.5 °F 6.8 °F 52% 30.14 in 10.0 mi SSW 16.1 mph - N/A   Scattered Clouds
12:35 AM 22.6 °F 7.9 °F 6.8 °F 51% 30.13 in 10.0 mi SSW 19.6 mph 25.3 mph N/A   Overcast
12:55 AM 22.8 °F 8.9 °F 6.4 °F 50% 30.12 in 10.0 mi SSW 17.3 mph 24.2 mph N/A   Overcast
1:15 AM 23.0 °F 10.1 °F 6.8 °F 50% 30.11 in 10.0 mi SSW 15.0 mph 19.6 mph N/A   Overcast
1:35 AM 23.5 °F 10.3 °F 6.8 °F 49% 30.09 in 10.0 mi SSW 16.1 mph 21.9 mph N/A   Overcast
1:55 AM 23.7 °F 11.5 °F 7.3 °F 50% 30.09 in 10.0 mi SSW 13.8 mph - N/A   Overcast
2:15 AM 23.9 °F 11.7 °F 7.0 °F 49% 30.08 in 10.0 mi SSW 13.8 mph 20.7 mph N/A   Overcast
2:35 AM 24.1 °F 10.6 °F 6.6 °F 47% 30.07 in 10.0 mi SSW 17.3 mph 23.0 mph N/A   Overcast
2:55 AM 24.3 °F 10.8 °F 6.4 °F 47% 30.06 in 10.0 mi SSW 17.3 mph 23.0 mph N/A   Overcast
3:15 AM 24.3 °F 10.0 °F 7.2 °F 48% 30.05 in 10.0 mi SSW 19.6 mph 25.3 mph N/A   Overcast
3:35 AM 24.3 °F 11.2 °F 9.0 °F 52% 30.05 in 10.0 mi SSW 16.1 mph 26.5 mph N/A   Overcast
3:55 AM 23.9 °F 10.3 °F 11.7 °F 60% 30.03 in 10.0 mi SSW 17.3 mph 25.3 mph N/A   Overcast
4:15 AM 24.3 °F 9.6 °F 14.0 °F 65% 30.02 in 10.0 mi SSW 20.7 mph 27.6 mph N/A   Overcast
4:35 AM 23.9 °F 11.7 °F 17.4 °F 76% 30.02 in 1.2 mi SW 13.8 mph 27.6 mph N/A   Overcast
4:55 AM 23.0 °F 10.1 °F 19.9 °F 88% 30.01 in 1.8 mi SSW 15.0 mph 24.2 mph N/A   Overcast
5:15 AM 22.8 °F 9.9 °F 20.8 °F 92% 30.02 in 1.5 mi SSW 15.0 mph 20.7 mph N/A   Overcast
5:35 AM 22.8 °F 8.9 °F 21.0 °F 93% 30.00 in 2.5 mi SW 17.3 mph - N/A   Overcast
5:55 AM 23.0 °F 9.6 °F 21.2 °F 93% 29.99 in 7.0 mi SW 16.1 mph 23.0 mph N/A   Overcast
6:15 AM 23.0 °F 10.6 °F 21.2 °F 93% 30.00 in 10.0 mi SW 13.8 mph - N/A   Overcast
6:35 AM 23.5 °F 10.8 °F 21.4 °F 91% 30.00 in 7.0 mi SW 15.0 mph 19.6 mph N/A   Overcast
6:55 AM 23.9 °F 12.9 °F 21.6 °F 91% 30.00 in 10.0 mi WSW 11.5 mph 20.7 mph N/A   Overcast
7:15 AM 24.1 °F 11.5 °F 21.7 °F 91% 30.00 in 10.0 mi SW 15.0 mph 21.9 mph N/A   Overcast
7:35 AM 24.4 °F 11.9 °F 21.7 °F 89% 30.00 in 10.0 mi SW 15.0 mph 23.0 mph N/A   Overcast
7:55 AM 24.8 °F 12.9 °F 21.7 °F 88% 30.00 in 10.0 mi SW 13.8 mph 21.9 mph N/A   Overcast
8:15 AM 24.8 °F 12.4 °F 21.6 °F 87% 30.00 in 10.0 mi SW 15.0 mph 23.0 mph N/A   Overcast
8:35 AM 24.8 °F 11.9 °F 21.4 °F 87% 30.00 in 10.0 mi SW 16.1 mph 25.3 mph N/A   Overcast
8:55 AM 25.2 °F 12.9 °F 21.2 °F 85% 30.00 in 10.0 mi WSW 15.0 mph 24.2 mph N/A   Overcast
9:15 AM 25.5 °F 11.6 °F 21.7 °F 86% 30.01 in 7.0 mi WSW 19.6 mph 26.5 mph N/A   Overcast
9:35 AM 26.1 °F 13.1 °F 22.1 °F 85% 30.00 in 10.0 mi SW 17.3 mph 20.7 mph N/A   Overcast
9:55 AM 26.4 °F 14.0 °F 22.1 °F 84% 30.00 in 10.0 mi SW 16.1 mph 23.0 mph N/A   Overcast
10:15 AM 27.0 °F 15.2 °F 22.5 °F 83% 30.00 in 10.0 mi SW 15.0 mph 19.6 mph N/A   Overcast
10:35 AM 27.3 °F 15.6 °F 22.8 °F 83% 30.00 in 10.0 mi SW 15.0 mph - N/A   Overcast
10:55 AM 27.7 °F 16.6 °F 23.0 °F 83% 29.99 in 10.0 mi SW 13.8 mph 19.6 mph N/A   Overcast
11:15 AM 28.0 °F 16.5 °F 23.0 °F 81% 29.98 in 10.0 mi WSW 15.0 mph 19.6 mph N/A   Overcast
11:35 AM 27.5 °F 16.3 °F 23.0 °F 83% 29.98 in 10.0 mi WSW 13.8 mph 20.7 mph N/A   Overcast
11:55 AM 28.4 °F 19.1 °F 23.7 °F 83% 29.98 in 10.0 mi SW 10.4 mph - N/A   Overcast
12:15 PM 29.3 °F 20.2 °F 23.9 °F 80% 29.98 in 10.0 mi SW 10.4 mph 17.3 mph N/A   Overcast
12:35 PM 29.3 °F 18.6 °F 23.9 °F 80% 29.97 in 10.0 mi SW 13.8 mph - N/A   Overcast
12:55 PM 30.0 °F 20.0 °F 24.1 °F 79% 29.97 in 10.0 mi WSW 12.7 mph 20.7 mph N/A   Overcast
1:15 PM 30.4 °F 20.5 °F 24.3 °F 78% 29.96 in 10.0 mi WSW 12.7 mph - N/A   Overcast
1:35 PM 32.5 °F 23.7 °F 25.0 °F 74% 29.96 in 10.0 mi WSW 11.5 mph - N/A   Mostly Cloudy
1:55 PM 32.5 °F 22.3 °F 25.0 °F 74% 29.95 in 10.0 mi SW 15.0 mph - N/A   Scattered Clouds
2:15 PM 32.2 °F 22.7 °F 25.0 °F 75% 29.95 in 10.0 mi WSW 12.7 mph - N/A   Clear
2:35 PM 32.9 °F 24.1 °F 25.3 °F 74% 29.96 in 10.0 mi WSW 11.5 mph - N/A   Mostly Cloudy
2:55 PM 32.9 °F 22.8 °F 25.5 °F 74% 29.96 in 10.0 mi WSW 15.0 mph - N/A   Scattered Clouds
3:15 PM 33.4 °F 24.8 °F 25.5 °F 73% 29.97 in 10.0 mi WSW 11.5 mph - N/A   Clear
3:35 PM 32.4 °F 23.5 °F 25.7 °F 76% 29.98 in 10.0 mi WSW 11.5 mph - N/A   Scattered Clouds
3:55 PM 32.9 °F 25.3 °F 26.1 °F 76% 29.98 in 10.0 mi SW 9.2 mph - N/A   Overcast
4:15 PM 32.9 °F 25.3 °F 26.2 °F 76% 29.98 in 10.0 mi SW 9.2 mph - N/A   Overcast
4:35 PM 32.4 °F 24.6 °F 26.4 °F 79% 29.98 in 10.0 mi SW 9.2 mph - N/A   Overcast
4:55 PM 32.2 °F 25.8 °F 26.6 °F 80% 29.98 in 10.0 mi SW 6.9 mph - N/A   Overcast
5:15 PM 32.0 °F 24.8 °F 27.0 °F 82% 29.99 in 10.0 mi SW 8.1 mph - N/A   Overcast
5:35 PM 32.0 °F 24.8 °F 27.1 °F 82% 29.99 in 10.0 mi SW 8.1 mph - N/A   Overcast
5:55 PM 32.0 °F 24.8 °F 27.1 °F 82% 30.00 in 10.0 mi SW 8.1 mph - N/A   Overcast
6:15 PM 32.0 °F 25.6 °F 27.5 °F 83% 30.00 in 10.0 mi SW 6.9 mph - N/A   Overcast
6:35 PM 32.0 °F 26.4 °F 27.5 °F 83% 30.00 in 10.0 mi SW 5.8 mph - N/A   Overcast
6:55 PM 32.0 °F 25.6 °F 27.5 °F 83% 30.00 in 10.0 mi WSW 6.9 mph - N/A   Overcast
7:15 PM 34.9 °F 25.7 °F 24.3 °F 65% 30.00 in 10.0 mi WNW 13.8 mph 19.6 mph N/A   Overcast
7:35 PM 35.1 °F 25.5 °F 23.5 °F 63% 30.01 in 10.0 mi NW 15.0 mph 18.4 mph N/A   Overcast
7:55 PM 34.9 °F 26.6 °F 23.5 °F 63% 30.02 in 10.0 mi WNW 11.5 mph 19.6 mph N/A   Overcast
8:15 PM 34.7 °F 28.1 °F 23.7 °F 64% 30.01 in 10.0 mi WNW 8.1 mph - N/A   Overcast
8:35 PM 34.3 °F 29.2 °F 23.7 °F 65% 30.01 in 10.0 mi WNW 5.8 mph - N/A   Overcast
8:55 PM 34.0 °F 28.8 °F 23.9 °F 67% 30.00 in 10.0 mi West 5.8 mph - N/A   Overcast
9:15 PM 34.0 °F 28.0 °F 23.9 °F 67% 30.00 in 10.0 mi West 6.9 mph - N/A   Overcast
9:35 PM 34.2 °F 27.5 °F 23.7 °F 66% 30.00 in 10.0 mi West 8.1 mph - N/A   Overcast
9:55 PM 34.0 °F 28.8 °F 23.9 °F 67% 30.00 in 10.0 mi West 5.8 mph - N/A   Overcast
10:15 PM 34.2 °F 28.2 °F 23.7 °F 66% 30.00 in 10.0 mi West 6.9 mph - N/A   Overcast
10:35 PM 33.8 °F 27.0 °F 23.7 °F 67% 30.00 in 10.0 mi West 8.1 mph - N/A   Overcast
10:55 PM 33.8 °F 27.7 °F 23.5 °F 66% 30.00 in 10.0 mi WNW 6.9 mph - N/A   Overcast
11:15 PM 33.8 °F 27.7 °F 23.2 °F 65% 30.00 in 10.0 mi WNW 6.9 mph - N/A   Overcast
11:35 PM 33.8 °F 27.0 °F 23.4 °F 66% 30.00 in 10.0 mi West 8.1 mph - N/A   Overcast
11:55 PM 33.8 °F 27.0 °F 23.4 °F 66% 30.00 in 10.0 mi West 8.1 mph - N/A   Overcast